�������l�o���
Date,Time,MP-1(��Sv/h),MP-2(��Sv/h),MP-3(��Sv/h),MP-4(��Sv/h),MP-5(��Sv/h),MP-6(��Sv/h),MP-7(��Sv/h),MP-8(��Sv/h),����,����(m/s),���J
2024/02/26,00:00,0.488,0.730,0.468,0.915,0.657,0.305,0.542,0.510,�k��,8.0,�L
2024/02/26,00:10,0.487,0.733,0.468,0.913,0.658,0.306,0.542,0.510,�k��,7.5,�L
2024/02/26,00:20,0.487,0.732,0.469,0.914,0.656,0.306,0.542,0.509,�k�k��,7.6,�L
2024/02/26,00:30,0.487,0.731,0.468,0.914,0.656,0.307,0.541,0.511,�k��,8.1,�L
2024/02/26,00:40,0.488,0.733,0.469,0.913,0.657,0.305,0.543,0.509,�k�k��,8.1,�L
2024/02/26,00:50,0.488,0.731,0.468,0.914,0.656,0.306,0.543,0.511,�k�k��,6.8,�L
2024/02/26,01:00,0.487,0.734,0.468,0.913,0.655,0.305,0.541,0.510,�k��,8.0,�L
2024/02/26,01:10,0.488,0.733,0.468,0.913,0.655,0.306,0.542,0.510,�k�k��,6.6,�L
2024/02/26,01:20,0.486,0.731,0.468,0.914,0.655,0.306,0.543,0.511,�k�k��,7.0,�L
2024/02/26,01:30,0.487,0.730,0.468,0.909,0.653,0.305,0.542,0.509,�k�k��,7.5,�L
2024/02/26,01:40,0.485,0.729,0.466,0.910,0.653,0.305,0.541,0.510,�k�k��,6.8,�L
2024/02/26,01:50,0.486,0.728,0.468,0.909,0.652,0.306,0.542,0.509,�k�k��,7.3,�L
2024/02/26,02:00,0.485,0.728,0.466,0.911,0.652,0.306,0.542,0.509,�k�k��,7.0,�L
2024/02/26,02:10,0.485,0.728,0.468,0.909,0.651,0.305,0.539,0.508,�k�k��,6.3,�L
2024/02/26,02:20,0.486,0.729,0.468,0.909,0.651,0.306,0.541,0.509,�k�k��,6.7,�L
2024/02/26,02:30,0.485,0.728,0.468,0.911,0.652,0.307,0.541,0.508,�k�k��,5.7,�L
2024/02/26,02:40,0.486,0.731,0.467,0.911,0.653,0.305,0.543,0.509,�k�k��,6.9,�L
2024/02/26,02:50,0.485,0.730,0.467,0.909,0.653,0.307,0.540,0.508,�k�k��,6.7,�L
2024/02/26,03:00,0.486,0.728,0.469,0.910,0.653,0.307,0.542,0.509,�k�k��,7.8,�L
2024/02/26,03:10,0.486,0.730,0.468,0.908,0.652,0.306,0.541,0.509,�k�k��,7.9,�L
2024/02/26,03:20,0.484,0.730,0.467,0.909,0.653,0.305,0.542,0.510,�k�k��,8.2,�L
2024/02/26,03:30,0.485,0.731,0.468,0.910,0.652,0.306,0.541,0.508,�k�k��,7.2,�L
2024/02/26,03:40,0.488,0.730,0.467,0.912,0.653,0.305,0.541,0.508,�k�k��,7.8,�L
2024/02/26,03:50,0.487,0.731,0.468,0.912,0.655,0.306,0.543,0.508,�k�k��,7.7,�L
2024/02/26,04:00,0.486,0.731,0.467,0.911,0.655,0.307,0.541,0.510,�k�k��,8.7,�L
2024/02/26,04:10,0.487,0.733,0.467,0.913,0.655,0.306,0.542,0.510,�k�k��,8.6,�L
2024/02/26,04:20,0.487,0.734,0.468,0.913,0.657,0.307,0.544,0.511,�k�k��,8.1,�L
2024/02/26,04:30,0.487,0.733,0.468,0.914,0.657,0.307,0.542,0.511,�k�k��,9.5,�L
2024/02/26,04:40,0.488,0.734,0.470,0.917,0.658,0.309,0.544,0.510,�k�k��,8.3,�L
2024/02/26,04:50,0.488,0.735,0.468,0.916,0.656,0.308,0.544,0.510,�k�k��,8.0,�L
2024/02/26,05:00,0.488,0.732,0.467,0.914,0.658,0.307,0.543,0.510,�k�k��,7.9,�L
2024/02/26,05:10,0.488,0.733,0.468,0.913,0.656,0.306,0.544,0.508,�k�k��,8.7,�L
2024/02/26,05:20,0.488,0.734,0.468,0.915,0.657,0.307,0.544,0.510,�k�k��,7.1,��
2024/02/26,05:30,0.486,0.733,0.466,0.914,0.656,0.305,0.543,0.509,�k�k��,8.1,��
2024/02/26,05:40,0.487,0.733,0.467,0.915,0.656,0.306,0.544,0.508,�k�k��,7.8,��
2024/02/26,05:50,0.488,0.735,0.466,0.915,0.656,0.305,0.543,0.510,�k�k��,6.7,��
2024/02/26,06:00,0.485,0.734,0.467,0.915,0.657,0.303,0.542,0.509,�k�k��,7.2,��
2024/02/26,06:10,0.488,0.735,0.467,0.915,0.657,0.305,0.543,0.510,�k�k��,7.9,��
2024/02/26,06:20,0.487,0.736,0.466,0.915,0.657,0.305,0.542,0.509,�k�k��,7.6,��
2024/02/26,06:30,0.487,0.733,0.466,0.916,0.659,0.304,0.542,0.509,�k�k��,8.2,��
2024/02/26,06:40,0.487,0.735,0.466,0.917,0.658,0.304,0.544,0.512,�k�k��,8.5,��
2024/02/26,06:50,0.486,0.736,0.466,0.916,0.657,0.303,0.542,0.508,�k�k��,6.6,��
2024/02/26,07:00,0.486,0.737,0.467,0.917,0.657,0.304,0.543,0.510,�k�k��,8.1,��
2024/02/26,07:10,0.487,0.735,0.466,0.915,0.659,0.303,0.543,0.512,�k�k��,7.9,��
2024/02/26,07:20,0.488,0.735,0.466,0.917,0.658,0.303,0.544,0.510,�k�k��,8.3,�L
2024/02/26,07:30,0.489,0.736,0.468,0.916,0.658,0.304,0.545,0.510,�k�k��,7.6,��
2024/02/26,07:40,0.488,0.735,0.467,0.917,0.660,0.303,0.544,0.510,�k�k��,7.8,��
2024/02/26,07:50,0.488,0.735,0.465,0.916,0.658,0.304,0.543,0.511,�k�k��,6.9,��
2024/02/26,08:00,0.488,0.735,0.465,0.918,0.658,0.302,0.545,0.511,�k�k��,6.6,��
2024/02/26,08:10,0.489,0.735,0.467,0.917,0.659,0.305,0.545,0.511,�k�k��,7.4,��
2024/02/26,08:20,0.488,0.736,0.465,0.917,0.659,0.303,0.546,0.511,�k�k��,8.3,��
2024/02/26,08:30,0.488,0.736,0.467,0.920,0.659,0.303,0.544,0.511,�k�k��,8.4,��
2024/02/26,08:40,0.488,0.734,0.466,0.918,0.659,0.303,0.546,0.512,�k�k��,9.0,��
2024/02/26,08:50,0.490,0.735,0.465,0.917,0.660,0.303,0.544,0.510,�k�k��,9.0,��
2024/02/26,09:00,0.489,0.736,0.467,0.918,0.659,0.303,0.545,0.510,�k��,10.7,��
2024/02/26,09:10,0.491,0.737,0.467,0.918,0.660,0.302,0.545,0.512,�k��,8.9,��
2024/02/26,09:20,0.490,0.738,0.467,0.919,0.660,0.304,0.546,0.510,�k�k��,7.8,��
2024/02/26,09:30,0.490,0.737,0.467,0.919,0.661,0.303,0.545,0.510,�k�k��,9.7,��
2024/02/26,09:40,0.491,0.738,0.467,0.920,0.662,0.304,0.545,0.511,�k��,8.7,��
2024/02/26,09:50,0.490,0.739,0.469,0.919,0.661,0.305,0.546,0.511,�k��,10.2,��
2024/02/26,10:00,0.492,0.740,0.469,0.921,0.662,0.303,0.546,0.510,�k��,8.5,��
2024/02/26,10:10,0.491,0.740,0.468,0.921,0.661,0.304,0.545,0.511,�k��,9.5,��
2024/02/26,10:20,0.491,0.740,0.469,0.922,0.663,0.305,0.544,0.512,�k�k��,10.5,��
2024/02/26,10:30,0.491,0.743,0.469,0.924,0.663,0.304,0.544,0.511,�k�k��,9.6,��
2024/02/26,10:40,0.490,0.741,0.470,0.922,0.663,0.305,0.544,0.512,�k�k��,7.9,��
2024/02/26,10:50,0.493,0.743,0.469,0.923,0.663,0.305,0.543,0.512,�k�k��,8.0,��
2024/02/26,11:00,0.491,0.741,0.470,0.922,0.664,0.305,0.544,0.512,�k�k��,7.0,��
2024/02/26,11:10,0.491,0.740,0.470,0.924,0.664,0.305,0.545,0.514,�k�k��,8.7,��
2024/02/26,11:20,0.493,0.741,0.472,0.924,0.664,0.306,0.545,0.513,�k��,9.9,��
2024/02/26,11:30,0.494,0.741,0.472,0.921,0.665,0.305,0.545,0.513,�k�k��,10.9,��
2024/02/26,11:40,0.495,0.741,0.471,0.923,0.666,0.306,0.546,0.513,�k�k��,9.9,��
2024/02/26,11:50,0.495,0.745,0.469,0.923,0.667,0.305,0.545,0.512,�k�k��,12.2,��
2024/02/26,12:00,0.493,0.744,0.471,0.923,0.665,0.305,0.545,0.514,�k�k��,11.9,��
2024/02/26,12:10,0.494,0.744,0.474,0.925,0.665,0.305,0.545,0.515,�k�k��,9.9,��
2024/02/26,12:20,0.494,0.743,0.472,0.923,0.665,0.305,0.545,0.512,�k�k��,11.1,��
2024/02/26,12:30,0.494,0.744,0.474,0.925,0.666,0.306,0.545,0.516,�k�k��,12.7,��
2024/02/26,12:40,0.494,0.745,0.473,0.925,0.668,0.306,0.545,0.514,�k�k��,10.8,��
2024/02/26,12:50,0.493,0.745,0.473,0.925,0.667,0.306,0.544,0.514,�k��,11.1,��
2024/02/26,13:00,0.493,0.744,0.473,0.927,0.667,0.305,0.547,0.515,�k��,13.8,��
2024/02/26,13:10,0.493,0.743,0.474,0.928,0.666,0.306,0.545,0.515,�k�k��,10.6,��
2024/02/26,13:20,0.495,0.745,0.475,0.927,0.667,0.306,0.547,0.514,�k�k��,9.9,��
2024/02/26,13:30,0.495,0.746,0.473,0.927,0.665,0.307,0.546,0.515,�k�k��,8.3,��
2024/02/26,13:40,0.496,0.746,0.474,0.929,0.667,0.307,0.546,0.513,�k�k��,11.7,��
2024/02/26,13:50,0.495,0.749,0.474,0.928,0.666,0.305,0.546,0.514,�k��,9.4,��
2024/02/26,14:00,0.495,0.744,0.475,0.926,0.670,0.307,0.546,0.514,�k��,6.8,��
2024/02/26,14:10,0.494,0.746,0.474,0.929,0.670,0.306,0.545,0.513,�k��,11.4,��
2024/02/26,14:20,0.494,0.749,0.476,0.927,0.670,0.306,0.546,0.512,�k��,10.8,��
2024/02/26,14:30,0.495,0.745,0.474,0.929,0.668,0.306,0.546,0.515,�k��,9.7,��
2024/02/26,14:40,0.497,0.748,0.475,0.929,0.668,0.306,0.545,0.514,�k��,13.5,��
2024/02/26,14:50,0.496,0.750,0.474,0.929,0.668,0.306,0.545,0.513,�k�k��,11.0,��
2024/02/26,15:00,0.495,0.749,0.475,0.929,0.669,0.308,0.546,0.513,�k��,9.7,��
2024/02/26,15:10,0.495,0.748,0.475,0.930,0.668,0.307,0.547,0.515,�k��,10.8,��
2024/02/26,15:20,0.496,0.747,0.476,0.929,0.669,0.307,0.545,0.513,�k��,9.7,��
2024/02/26,15:30,0.496,0.749,0.475,0.931,0.670,0.306,0.546,0.514,�k��,9.6,��
2024/02/26,15:40,0.496,0.749,0.476,0.930,0.671,0.306,0.546,0.517,�k��,11.9,��
2024/02/26,15:50,0.497,0.749,0.474,0.929,0.670,0.307,0.548,0.516,�k��,10.2,��
2024/02/26,16:00,0.497,0.750,0.475,0.930,0.671,0.306,0.547,0.515,�k��,10.2,��
2024/02/26,16:10,0.497,0.752,0.475,0.930,0.669,0.307,0.547,0.516,�k��,8.3,��
2024/02/26,16:20,0.496,0.750,0.475,0.931,0.671,0.306,0.547,0.516,�k�k��,10.5,��
2024/02/26,16:30,0.496,0.753,0.474,0.932,0.670,0.308,0.549,0.516,�k�k��,9.3,��
2024/02/26,16:40,0.495,0.751,0.477,0.930,0.671,0.306,0.549,0.517,�k��,8.6,��
2024/02/26,16:50,0.497,0.750,0.475,0.930,0.672,0.306,0.547,0.515,�k��,9.3,��
2024/02/26,17:00,0.497,0.751,0.475,0.932,0.672,0.307,0.548,0.516,�k�k��,7.9,��
2024/02/26,17:10,0.497,0.751,0.476,0.931,0.671,0.308,0.549,0.516,�k�k��,8.8,��
2024/02/26,17:20,0.498,0.751,0.474,0.934,0.671,0.307,0.547,0.515,�k�k��,8.3,��
2024/02/26,17:30,0.496,0.751,0.475,0.931,0.672,0.306,0.548,0.516,�k�k��,7.7,��
2024/02/26,17:40,0.496,0.749,0.476,0.931,0.671,0.307,0.548,0.515,�k�k��,6.6,��
2024/02/26,17:50,0.498,0.753,0.475,0.931,0.670,0.306,0.548,0.517,�k��,8.0,��
2024/02/26,18:00,0.497,0.750,0.476,0.931,0.671,0.307,0.547,0.517,�k��,7.5,��
2024/02/26,18:10,0.497,0.751,0.477,0.933,0.672,0.307,0.548,0.517,�k�k��,7.1,��
2024/02/26,18:20,0.498,0.750,0.475,0.930,0.672,0.307,0.547,0.516,�k�k��,7.9,��
2024/02/26,18:30,0.497,0.749,0.475,0.932,0.672,0.307,0.548,0.515,�k�k��,8.2,��
2024/02/26,18:40,0.498,0.751,0.476,0.934,0.672,0.306,0.548,0.514,�k�k��,6.5,��
2024/02/26,18:50,0.499,0.751,0.475,0.932,0.671,0.306,0.547,0.515,�k��,8.8,��
2024/02/26,19:00,0.498,0.752,0.476,0.932,0.672,0.307,0.548,0.516,�k��,8.4,��
2024/02/26,19:10,0.497,0.750,0.477,0.931,0.672,0.307,0.548,0.516,�k�k��,7.9,��
2024/02/26,19:20,0.497,0.752,0.474,0.932,0.672,0.306,0.548,0.514,�k��,8.5,��
2024/02/26,19:30,0.496,0.752,0.476,0.931,0.672,0.306,0.548,0.514,�k��,9.5,��
2024/02/26,19:40,0.497,0.752,0.477,0.933,0.672,0.306,0.548,0.515,�k�k��,7.3,��
2024/02/26,19:50,0.497,0.751,0.476,0.932,0.672,0.306,0.550,0.516,�k�k��,9.0,��
2024/02/26,20:00,0.497,0.754,0.477,0.931,0.672,0.306,0.548,0.515,�k��,9.0,��
2024/02/26,20:10,0.499,0.752,0.475,0.934,0.673,0.305,0.549,0.514,�k��,9.0,��
2024/02/26,20:20,0.498,0.753,0.476,0.933,0.673,0.305,0.550,0.515,�k��,8.5,��
2024/02/26,20:30,0.496,0.753,0.476,0.932,0.673,0.307,0.548,0.515,�k�k��,7.3,��
2024/02/26,20:40,0.497,0.752,0.476,0.934,0.672,0.306,0.549,0.515,�k�k��,7.6,��
2024/02/26,20:50,0.498,0.751,0.477,0.934,0.672,0.306,0.549,0.515,�k�k��,5.8,��
2024/02/26,21:00,0.496,0.751,0.476,0.933,0.673,0.306,0.548,0.516,�k�k��,6.2,��
2024/02/26,21:10,0.499,0.752,0.478,0.932,0.674,0.307,0.549,0.515,�k�k��,7.0,��
2024/02/26,21:20,0.498,0.752,0.476,0.932,0.672,0.307,0.548,0.515,�k�k��,6.9,��
2024/02/26,21:30,0.497,0.753,0.477,0.933,0.672,0.306,0.549,0.515,�k�k��,8.5,��
2024/02/26,21:40,0.498,0.754,0.476,0.934,0.672,0.306,0.549,0.513,�k�k��,6.5,��
2024/02/26,21:50,0.498,0.752,0.476,0.930,0.671,0.307,0.550,0.515,�k�k��,7.5,��
2024/02/26,22:00,0.498,0.753,0.476,0.932,0.672,0.306,0.549,0.517,�k�k��,8.7,��
2024/02/26,22:10,0.499,0.752,0.476,0.934,0.674,0.306,0.550,0.517,�k�k��,7.0,��
2024/02/26,22:20,0.497,0.752,0.477,0.933,0.674,0.307,0.548,0.515,�k�k��,8.2,��
2024/02/26,22:30,0.498,0.751,0.476,0.932,0.672,0.308,0.549,0.514,�k��,9.1,��
2024/02/26,22:40,0.497,0.751,0.478,0.934,0.674,0.306,0.549,0.516,�k��,10.8,��
2024/02/26,22:50,0.499,0.754,0.477,0.934,0.673,0.307,0.550,0.514,�k��,10.0,��
2024/02/26,23:00,0.497,0.752,0.474,0.932,0.672,0.307,0.550,0.514,�k��,10.3,��
2024/02/26,23:10,0.497,0.753,0.474,0.933,0.673,0.309,0.548,0.515,�k��,10.5,��
2024/02/26,23:20,0.499,0.752,0.475,0.933,0.672,0.306,0.549,0.514,�k��,10.8,��
2024/02/26,23:30,0.497,0.751,0.475,0.933,0.672,0.307,0.548,0.516,�k��,12.4,��
2024/02/26,23:40,0.497,0.750,0.474,0.936,0.674,0.305,0.549,0.516,�k��,11.6,��
2024/02/26,23:50,0.498,0.752,0.473,0.933,0.671,0.306,0.549,0.516,�k��,11.4,��
